Tracking 19570 objects as of 21-Feb-2019
HD Live streaming from Space Station
objects crossing your sky now

OPS 6630 (2)

Track OPS 6630 (2) now!
10-day predictions
OPS 6630 (2) is classified as:


NORAD ID: 6938
Int'l Code: 1973-088D
Perigee: 1,422.1 km
Apogee: 1,462.2 km
Inclination: 96.9 °
Period: 114.6 minutes
Semi major axis: 7813 km
RCS: 0.3492 m2 (medium)
Launch date: November 10, 1973
Source: United States (US)
Launch site: AIR FORCE WESTERN TEST RANGE (AFWTR)
aabbcc
Your satellite tracking list
Your tracking list is empty




NASA's NSSDC Master Catalog

Two Line Element Set (TLE):
1  6938U 73088D   19051.93539619 -.00000005 +00000-0 +83559-4 0  9993
2  6938 096.9350 096.5725 0025609 330.0296 151.6886 12.57082557077246
Source of the keplerian elements: AFSPC